Weather History for KBPC - December, 2013

Change the Weather History Date:

Saturday, December 7, 2013

  Actual Average (KBGD) Record (KBGD)
Temperature  
Mean Temperature 12 °F 40 °F  
Max Temperature 21 °F 52 °F 75 °F (2003)
Min Temperature 3 °F 28 °F 5 °F (2005)
Degree Days  
Heating Degree Days 53 25  
Month to date heating degree days 168  
Since 1 July heating degree days 885  
Cooling Degree Days 0 0  
Month to date cooling degree days 0  
Year to date cooling degree days 1839  
Moisture  
Dew Point 1 °F    
Average Humidity 62    
Maximum Humidity 85    
Minimum Humidity 33    
Precipitation  
Precipitation 0.00 in 0.02 in 0.56 in (1980)
Month to date precipitation 0.14  
Year to date precipitation 21.09  
Snow  
Snow 0.00 in - - ()
Month to date snowfall  
Since 1 July snowfall  
Snow Depth -    
Sea Level Pressure  
Sea Level Pressure 30.33 in    
Wind  
Wind Speed 4 mph (SE)    
Max Wind Speed 14 mph    
Max Gust Speed 18 mph    
Visibility 10 miles    
Events      
T = Trace of Precipitation, MM = Missing Value Source: NWS Daily Summary

Daily Weather History Graph

Daily Weather History Graph

Search for Another Location

Airport or City:

Trip Planner

Search our weather history database for the weather conditions in past years. The results will help you decide how hot, cold, wet, or windy it might be!

Date:

Astronomy

Dec. 07, 2013 Rise Set
Actual Time 7:41 AM CST 5:30 PM CST
Civil Twilight 7:13 AM CST 5:58 PM CST
Nautical Twilight 6:41 AM CST 6:30 PM CST
Astronomical Twilight 6:10 AM CST 7:01 PM CST
Moon 11:34 AM CST (12/7) 11:06 PM CST (12/7)
Length of Visible Light 10h 45m
Length of Day
9h 48m
Waxing Crescent, 29% of the Moon is Illuminated
Dec 7
Waxing Crescent
Dec 9
First Quarter
Dec 17
Full
Dec 25
Last Quarter
Jan 1
New

Hourly Weather History & Observations

Time (CST) Temp. Windchill Dew Point Humidity Pressure Visibility Wind Dir Wind Speed Gust Speed Precip Events Conditions
12:15 AM 6.8 °F -3.5 °F 1.4 °F 79% 30.49 in 10.0 mi East 5.8 mph - N/A   Clear
12:35 AM 6.8 °F -0.1 °F 1.4 °F 79% 30.49 in 10.0 mi ENE 3.5 mph - N/A   Clear
12:55 AM 6.8 °F - 1.4 °F 79% 30.49 in 10.0 mi Calm Calm - N/A   Clear
1:15 AM 5.0 °F - -0.4 °F 78% 30.48 in 10.0 mi Calm Calm - N/A   Clear
1:35 AM 6.8 °F - 1.4 °F 79% 30.48 in 10.0 mi Calm Calm - N/A   Clear
1:55 AM 6.8 °F - 1.4 °F 79% 30.48 in 10.0 mi Calm Calm - N/A   Clear
2:15 AM 6.8 °F - -0.4 °F 72% 30.48 in 10.0 mi Calm Calm - N/A   Clear
2:35 AM 6.8 °F - -0.4 °F 72% 30.48 in 10.0 mi Calm Calm - N/A   Clear
2:55 AM 6.8 °F - -0.4 °F 72% 30.48 in 10.0 mi Calm Calm - N/A   Clear
3:15 AM 6.8 °F - -0.4 °F 72% 30.47 in 10.0 mi Calm Calm - N/A   Clear
3:35 AM 5.0 °F - -0.4 °F 78% 30.48 in 10.0 mi Calm Calm - N/A   Clear
3:55 AM 5.0 °F - -0.4 °F 78% 30.48 in 10.0 mi Calm Calm - N/A   Clear
4:15 AM 5.0 °F - -0.4 °F 78% 30.48 in 10.0 mi Calm Calm - N/A   Clear
4:35 AM 5.0 °F -2.1 °F -0.4 °F 78% 30.48 in 10.0 mi ESE 3.5 mph - N/A   Scattered Clouds
4:55 AM 5.0 °F - -0.4 °F 78% 30.47 in 10.0 mi Calm Calm - N/A   Mostly Cloudy
5:15 AM 5.0 °F - -0.4 °F 78% 30.47 in 10.0 mi Calm Calm - N/A   Overcast
5:35 AM 5.0 °F - -0.4 °F 78% 30.47 in 10.0 mi Calm Calm - N/A   Scattered Clouds
5:55 AM 3.2 °F -6.2 °F -2.2 °F 78% 30.46 in 10.0 mi East 4.6 mph - N/A   Scattered Clouds
6:15 AM 5.0 °F -4.1 °F -0.4 °F 78% 30.47 in 10.0 mi ESE 4.6 mph - N/A   Overcast
6:35 AM 5.0 °F - -0.4 °F 78% 30.48 in 10.0 mi Calm Calm - N/A   Overcast
6:55 AM 6.8 °F - -0.4 °F 72% 30.48 in 10.0 mi Calm Calm - N/A   Overcast
7:15 AM 5.0 °F -4.1 °F -0.4 °F 78% 30.48 in 10.0 mi ENE 4.6 mph - N/A   Scattered Clouds
7:35 AM 3.2 °F -4.2 °F -0.4 °F 85% 30.49 in 10.0 mi East 3.5 mph - N/A   Clear
7:55 AM 5.0 °F - -2.2 °F 72% 30.49 in 10.0 mi Calm Calm - N/A   Clear
8:15 AM 5.0 °F - -0.4 °F 78% 30.49 in 10.0 mi Calm Calm - N/A   Mostly Cloudy
8:35 AM 6.8 °F -2.0 °F -0.4 °F 72% 30.49 in 10.0 mi SSE 4.6 mph - N/A   Mostly Cloudy
8:55 AM 8.6 °F 0.1 °F -0.4 °F 67% 30.49 in 10.0 mi SE 4.6 mph - N/A   Overcast
9:15 AM 10.4 °F 2.2 °F -0.4 °F 62% 30.47 in 10.0 mi ESE 4.6 mph - N/A   Overcast
9:35 AM 10.4 °F 4.0 °F -0.4 °F 62% 30.45 in 10.0 mi East 3.5 mph - N/A   Mostly Cloudy
9:55 AM 10.4 °F 4.0 °F -0.4 °F 62% 30.45 in 10.0 mi SE 3.5 mph - N/A   Overcast
10:15 AM 12.2 °F 1.7 °F -2.2 °F 53% 30.44 in 10.0 mi ESE 6.9 mph - N/A   Overcast
10:35 AM 12.2 °F 1.7 °F -2.2 °F 53% 30.41 in 10.0 mi ESE 6.9 mph - N/A   Overcast
10:55 AM 14.0 °F 3.9 °F -4.0 °F 45% 30.39 in 10.0 mi East 6.9 mph - N/A   Overcast
11:15 AM 14.0 °F 8.2 °F -4.0 °F 45% 30.40 in 10.0 mi ESE 3.5 mph - N/A   Overcast
11:35 AM 14.0 °F 6.5 °F -2.2 °F 49% 30.39 in 10.0 mi ESE 4.6 mph - N/A   Overcast
11:55 AM 15.8 °F - -2.2 °F 45% 30.38 in 10.0 mi Calm Calm - N/A   Overcast
12:15 PM 15.8 °F 10.2 °F -2.2 °F 45% 30.37 in 10.0 mi SE 3.5 mph - N/A   Overcast
12:35 PM 17.6 °F 12.3 °F -2.2 °F 42% 30.36 in 10.0 mi SE 3.5 mph - N/A   Overcast
12:55 PM 17.6 °F 9.3 °F -0.4 °F 45% 30.33 in 10.0 mi SE 5.8 mph - N/A   Mostly Cloudy
1:15 PM 17.6 °F 9.3 °F -0.4 °F 45% 30.32 in 10.0 mi SE 5.8 mph - N/A   Overcast
1:35 PM 19.4 °F 9.5 °F 1.4 °F 46% 30.30 in 10.0 mi ESE 8.1 mph - N/A   Overcast
1:55 PM 19.4 °F 10.4 °F 1.4 °F 46% 30.28 in 10.0 mi SE 6.9 mph - N/A   Overcast
2:15 PM 19.4 °F 10.4 °F 1.4 °F 46% 30.27 in 10.0 mi ESE 6.9 mph - N/A   Overcast
2:35 PM 19.4 °F 9.5 °F 1.4 °F 46% 30.26 in 10.0 mi ESE 8.1 mph - N/A   Overcast
2:55 PM 21.2 °F 10.1 °F -2.2 °F 36% 30.26 in 10.0 mi SE 10.4 mph - N/A   Overcast
3:15 PM 21.2 °F 9.5 °F -4.0 °F 33% 30.25 in 10.0 mi SSE 11.5 mph - N/A   Overcast
3:35 PM 19.4 °F 7.9 °F -4.0 °F 36% 30.24 in 10.0 mi SE 10.4 mph - N/A   Overcast
3:55 PM 19.4 °F 7.2 °F -4.0 °F 36% 30.24 in 10.0 mi SSE 11.5 mph - N/A   Overcast
4:15 PM 19.4 °F 10.4 °F -4.0 °F 36% 30.23 in 10.0 mi SSE 6.9 mph - N/A   Overcast
4:35 PM 19.4 °F 7.9 °F -4.0 °F 36% 30.23 in 10.0 mi SSE 10.4 mph - N/A   Overcast
4:55 PM 19.4 °F 6.6 °F -4.0 °F 36% 30.21 in 10.0 mi SSE 12.7 mph - N/A   Overcast
5:15 PM 19.4 °F 7.9 °F -2.2 °F 39% 30.20 in 10.0 mi SSE 10.4 mph - N/A   Overcast
5:35 PM 19.4 °F 7.9 °F -0.4 °F 42% 30.20 in 10.0 mi SSE 10.4 mph - N/A   Overcast
5:55 PM 19.4 °F 8.6 °F -0.4 °F 42% 30.19 in 10.0 mi SSE 9.2 mph - N/A   Overcast
6:15 PM 19.4 °F 7.9 °F -0.4 °F 42% 30.19 in 10.0 mi South 10.4 mph - N/A   Overcast
6:35 PM 17.6 °F 6.4 °F 1.4 °F 49% 30.18 in 10.0 mi SSE 9.2 mph - N/A   Overcast
6:55 PM 17.6 °F 5.7 °F 1.4 °F 49% 30.18 in 10.0 mi SSE 10.4 mph - N/A   Overcast
7:15 PM 17.6 °F 5.7 °F 3.2 °F 53% 30.17 in 10.0 mi South 10.4 mph - N/A   Overcast
7:35 PM 17.6 °F 4.3 °F 3.2 °F 53% 30.16 in 10.0 mi SSE 12.7 mph - N/A   Overcast
7:55 PM 19.4 °F 6.6 °F 5.0 °F 54% 30.14 in 10.0 mi SSE 12.7 mph - N/A   Overcast
8:15 PM 17.6 °F 4.3 °F 6.8 °F 63% 30.13 in 10.0 mi SSE 12.7 mph 18.4 mph N/A   Overcast
8:35 PM 17.6 °F 3.7 °F 8.6 °F 68% 30.13 in 10.0 mi South 13.8 mph - N/A   Overcast
8:55 PM 17.6 °F 4.3 °F 10.4 °F 73% 30.12 in 10.0 mi South 12.7 mph 17.3 mph N/A   Overcast
9:15 PM 17.6 °F 5.0 °F 10.4 °F 73% 30.12 in 10.0 mi South 11.5 mph - N/A   Overcast
9:35 PM 17.6 °F 5.7 °F 10.4 °F 73% 30.11 in 10.0 mi SSE 10.4 mph - N/A   Overcast
9:55 PM 17.6 °F 6.4 °F 10.4 °F 73% 30.11 in 10.0 mi SSE 9.2 mph - N/A   Overcast
10:15 PM 17.6 °F 5.7 °F 10.4 °F 73% 30.11 in 10.0 mi South 10.4 mph - N/A   Overcast
10:35 PM 17.6 °F 7.3 °F 10.4 °F 73% 30.11 in 10.0 mi SSE 8.1 mph - N/A   Overcast
10:55 PM 17.6 °F 7.3 °F 10.4 °F 73% 30.10 in 10.0 mi SSE 8.1 mph - N/A   Overcast
11:15 PM 17.6 °F 9.3 °F 10.4 °F 73% 30.09 in 10.0 mi SSE 5.8 mph - N/A   Overcast
11:35 PM 19.4 °F 9.5 °F 12.2 °F 74% 30.08 in 10.0 mi South 8.1 mph - N/A   Overcast
11:55 PM 19.4 °F 10.4 °F 12.2 °F 74% 30.07 in 10.0 mi South 6.9 mph - N/A   Overcast